| time (UTC) | temp C | wind direction | speed KPH | gust KPH | rain 1hr cm | rain 24hr cm | rain mn cm | humidity % | barometer mb |
| 20260504180019 | 23 | 234 | 0.0 | 11.3 | 0.00 | 0.00 | 0.00 | 38 | 1015.7 |
| 20260504174517 | 23 | 251 | 1.6 | 8.0 | 0.00 | 0.00 | 0.00 | 38 | 1015.8 |
| 20260504173013 | 23 | 167 | 0.0 | 6.4 | 0.00 | 0.00 | 0.00 | 45 | 1016.2 |
| 20260504171510 | 22 | 223 | 1.6 | 14.5 | 0.00 | 0.00 | 0.00 | 42 | 1016.4 |
| 20260504081520 | 7 | 209 | 0.0 | 0.0 | 0.00 | 0.00 | 0.00 | 84 | 1018.1 |
| 20260504044606 | 7 | 224 | 0.0 | 0.0 | 0.00 | 0.00 | 0.00 | 82 | 1018.2 |
| 20260504043100 | 7 | 224 | 0.0 | 0.0 | 0.00 | 0.00 | 0.00 | 83 | 1018.4 |
| 20260504041557 | 7 | 224 | 0.0 | 0.0 | 0.00 | 0.00 | 0.00 | 82 | 1018.3 |
| 20260504040106 | 7 | 224 | 0.0 | 0.0 | 0.00 | 0.00 | 0.00 | 82 | 1018.3 |
| 20260504034618 | 7 | 224 | 0.0 | 0.0 | 0.00 | 0.00 | 0.00 | 82 | 1018.3 |
| 20260504033054 | 7 | 224 | 0.0 | 0.0 | 0.00 | 0.00 | 0.00 | 81 | 1018.2 |
| 20260504031553 | 7 | 224 | 0.0 | 0.0 | 0.00 | 0.00 | 0.00 | 81 | 1018.2 |
| 20260504030118 | 8 | 224 | 0.0 | 0.0 | 0.00 | 0.00 | 0.00 | 80 | 1018.1 |
| 20260504024558 | 8 | 224 | 0.0 | 0.0 | 0.00 | 0.00 | 0.00 | 79 | 1018.0 |
| 20260504023051 | 8 | 224 | 0.0 | 0.0 | 0.00 | 0.00 | 0.00 | 78 | 1018.0 |
| 20260504021553 | 8 | 224 | 0.0 | 0.0 | 0.00 | 0.00 | 0.00 | 76 | 1018.1 |
| 20260504020056 | 8 | 224 | 0.0 | 0.0 | 0.00 | 0.00 | 0.00 | 74 | 1018.0 |
| 20260504014555 | 9 | 224 | 0.0 | 0.0 | 0.00 | 0.00 | 0.00 | 72 | 1017.9 |
| 20260504013053 | 10 | 224 | 0.0 | 0.0 | 0.00 | 0.00 | 0.00 | 71 | 1017.8 |
| 20260504011548 | 10 | 224 | 0.0 | 0.0 | 0.00 | 0.00 | 0.00 | 69 | 1017.6 |
| 20260504010047 | 11 | 224 | 0.0 | 0.0 | 0.00 | 0.00 | 0.00 | 67 | 1017.5 |
| 20260504004547 | 11 | 224 | 0.0 | 0.0 | 0.00 | 0.00 | 0.00 | 62 | 1017.2 |
| 20260504003046 | 12 | 224 | 0.0 | 0.0 | 0.00 | 0.00 | 0.00 | 60 | 1017.1 |
| 20260504001559 | 13 | 224 | 0.0 | 0.0 | 0.00 | 0.00 | 0.00 | 58 | 1017.1 |
| 20260504000047 | 14 | 224 | 0.0 | 0.0 | 0.00 | 0.00 | 0.00 | 51 | 1016.9 |
| 20260503234545 | 15 | 224 | 0.0 | 0.0 | 0.00 | 0.00 | 0.00 | 46 | 1016.9 |
| 20260503233044 | 16 | 224 | 0.0 | 0.0 | 0.00 | 0.00 | 0.00 | 44 | 1016.9 |
| 20260503231551 | 16 | 220 | 0.0 | 0.0 | 0.00 | 0.00 | 0.00 | 38 | 1016.8 |
| 20260503230047 | 17 | 228 | 0.0 | 8.0 | 0.00 | 0.00 | 0.00 | 36 | 1016.8 |
| 20260503224543 | 17 | 66 | 0.0 | 0.0 | 0.00 | 0.03 | 0.00 | 37 | 1016.9 |
| 20260503223043 | 17 | 225 | 0.0 | 1.6 | 0.00 | 0.03 | 0.00 | 35 | 1016.8 |
| 20260503221545 | 18 | 251 | 0.0 | 6.4 | 0.00 | 0.03 | 0.00 | 37 | 1016.8 |
| 20260503220041 | 18 | 185 | 0.0 | 1.6 | 0.00 | 0.03 | 0.00 | 34 | 1016.7 |
| 20260503214541 | 18 | 206 | 0.0 | 8.0 | 0.00 | 0.03 | 0.00 | 35 | 1016.8 |
| 20260503213045 | 18 | 228 | 0.0 | 3.2 | 0.00 | 0.03 | 0.00 | 36 | 1017.0 |
| 20260503211545 | 18 | 236 | 0.0 | 14.5 | 0.00 | 0.03 | 0.00 | 35 | 1017.0 |
| 20260503210038 | 18 | 277 | 0.0 | 6.4 | 0.00 | 0.03 | 0.00 | 37 | 1017.0 |
| 20260503204542 | 18 | 183 | 0.0 | 6.4 | 0.00 | 0.03 | 0.00 | 36 | 1017.1 |
| 20260503203037 | 18 | 284 | 0.0 | 3.2 | 0.00 | 0.03 | 0.00 | 39 | 1017.3 |
| 20260503201536 | 18 | 221 | 0.0 | 11.3 | 0.00 | 0.03 | 0.00 | 33 | 1017.4 |
| 20260503200036 | 18 | 246 | 0.0 | 9.7 | 0.00 | 0.03 | 0.00 | 35 | 1017.7 |
| 20260503194537 | 18 | 238 | 0.0 | 4.8 | 0.00 | 0.03 | 0.00 | 37 | 1017.8 |
| 20260503193032 | 17 | 216 | 0.0 | 11.3 | 0.00 | 0.03 | 0.00 | 35 | 1018.0 |
| 20260503191530 | 17 | 224 | 1.6 | 11.3 | 0.00 | 0.03 | 0.00 | 35 | 1018.3 |
| 20260503190042 | 17 | 220 | 1.6 | 11.3 | 0.00 | 0.03 | 0.00 | 36 | 1018.4 |
| 20260503184526 | 17 | 17 | 0.0 | 8.0 | 0.00 | 0.03 | 0.00 | 43 | 1018.5 |
| 20260503183024 | 16 | 231 | 3.2 | 17.7 | 0.00 | 0.03 | 0.00 | 36 | 1018.8 |
| 20260503181524 | 16 | 211 | 0.0 | 16.1 | 0.00 | 0.03 | 0.00 | 39 | 1018.9 |